| time (UTC) | temp F | wind direction | speed knots | gust knots | rain 1hr in | rain 24hr in | rain mn in | humidity % | barometer mb |
| 20260904134530 | 47 | 163 | 0.0 | 0.9 | 0.01 | 0.03 | 0.03 | 98 | 1015.4 |
| 20260904133031 | 47 | 157 | 0.0 | 0.9 | 0.01 | 0.03 | 0.03 | 98 | 1015.3 |
| 20260904131606 | 48 | 157 | 0.0 | 0.0 | 0.02 | 0.03 | 0.03 | 98 | 1015.2 |
| 20260904124530 | 48 | 157 | 0.0 | 0.9 | 0.01 | 0.02 | 0.02 | 98 | 1015.1 |
| 20260904123029 | 48 | 157 | 0.0 | 0.0 | 0.01 | 0.02 | 0.01 | 98 | 1015.0 |
| 20260904121531 | 48 | 157 | 0.0 | 0.9 | 0.00 | 0.01 | 0.01 | 97 | 1015.0 |
| 20260904120108 | 48 | 157 | 0.0 | 1.7 | 0.00 | 0.01 | 0.01 | 97 | 1014.9 |
| 20260904114606 | 48 | 159 | 0.9 | 2.6 | 0.00 | 0.01 | 0.01 | 97 | 1014.8 |
| 20260904111528 | 48 | 178 | 0.0 | 0.0 | 0.00 | 0.01 | 0.01 | 97 | 1014.5 |
| 20260904110029 | 48 | 163 | 0.0 | 1.7 | 0.00 | 0.02 | 0.01 | 97 | 1014.4 |
| 20260904104606 | 48 | 156 | 0.0 | 2.6 | 0.00 | 0.02 | 0.01 | 97 | 1014.2 |
| 20260904103031 | 48 | 149 | 0.0 | 3.5 | 0.00 | 0.02 | 0.01 | 97 | 1014.1 |
| 20260904101530 | 48 | 180 | 0.0 | 0.0 | 0.00 | 0.02 | 0.01 | 97 | 1014.1 |
| 20260904100029 | 48 | 180 | 0.0 | 0.9 | 0.00 | 0.02 | 0.01 | 97 | 1013.9 |
| 20260904093028 | 48 | 174 | 0.9 | 1.7 | 0.00 | 0.02 | 0.01 | 97 | 1013.8 |
| 20260904091530 | 48 | 179 | 0.0 | 1.7 | 0.00 | 0.02 | 0.01 | 97 | 1013.9 |
| 20260904090030 | 48 | 147 | 0.9 | 2.6 | 0.00 | 0.02 | 0.01 | 97 | 1013.8 |
| 20260904084532 | 48 | 163 | 1.7 | 3.5 | 0.00 | 0.02 | 0.01 | 97 | 1013.7 |
| 20260904083030 | 48 | 171 | 1.7 | 3.5 | 0.00 | 0.02 | 0.01 | 96 | 1013.7 |
| 20260904081605 | 48 | 161 | 0.0 | 3.5 | 0.00 | 0.02 | 0.01 | 96 | 1013.7 |
| 20260904080033 | 48 | 163 | 0.9 | 2.6 | 0.01 | 0.02 | 0.01 | 96 | 1013.8 |
| 20260904071531 | 48 | 177 | 0.0 | 3.5 | 0.01 | 0.02 | 0.00 | 96 | 1013.8 |
| 20260904070029 | 48 | 217 | 0.9 | 2.6 | 0.00 | 0.01 | 0.00 | 96 | 1013.7 |
| 20260904064526 | 48 | 200 | 0.9 | 2.6 | 0.00 | 0.01 | 0.01 | 95 | 1013.7 |
| 20260904063031 | 48 | 121 | 0.9 | 3.5 | 0.00 | 0.01 | 0.01 | 95 | 1013.6 |
| 20260904061531 | 48 | 155 | 0.0 | 1.7 | 0.00 | 0.01 | 0.01 | 95 | 1013.6 |
| 20260904054532 | 49 | 157 | 0.0 | 1.7 | 0.00 | 0.01 | 0.01 | 95 | 1013.6 |
| 20260904053032 | 49 | 132 | 0.9 | 2.6 | 0.00 | 0.01 | 0.01 | 95 | 1013.6 |
| 20260904051531 | 50 | 189 | 0.0 | 0.9 | 0.00 | 0.01 | 0.01 | 94 | 1013.7 |
| 20260904050030 | 50 | 252 | 0.0 | 1.7 | 0.00 | 0.01 | 0.01 | 94 | 1013.6 |
| 20260904044530 | 50 | 185 | 0.0 | 2.6 | 0.00 | 0.01 | 0.01 | 94 | 1013.7 |
| 20260904043031 | 51 | 202 | 0.0 | 0.9 | 0.00 | 0.01 | 0.01 | 93 | 1013.8 |
| 20260904041531 | 51 | 155 | 0.9 | 3.5 | 0.00 | 0.01 | 0.01 | 93 | 1014.0 |
| 20260904040030 | 51 | 210 | 0.9 | 3.5 | 0.00 | 0.01 | 0.01 | 92 | 1013.8 |
| 20260904033032 | 51 | 172 | 0.0 | 2.6 | 0.00 | 0.01 | 0.01 | 91 | 1013.5 |
| 20260904031528 | 51 | 184 | 1.7 | 4.3 | 0.00 | 0.02 | 0.01 | 90 | 1013.4 |
| 20260904024531 | 52 | 157 | 0.0 | 2.6 | 0.00 | 0.06 | 0.01 | 87 | 1013.3 |
| 20260904023029 | 53 | 154 | 1.7 | 2.6 | 0.00 | 0.09 | 0.01 | 85 | 1013.2 |
| 20260904020030 | 55 | 100 | 0.9 | 3.5 | 0.00 | 0.14 | 0.01 | 81 | 1013.0 |
| 20260904013031 | 55 | 338 | 4.3 | 9.6 | 0.00 | 0.16 | 0.01 | 80 | 1013.0 |
| 20260904011530 | 55 | 335 | 4.3 | 7.8 | 0.00 | 0.17 | 0.01 | 82 | 1012.9 |
| 20260904010033 | 55 | 335 | 3.5 | 8.7 | 0.00 | 0.19 | 0.01 | 82 | 1012.9 |
| 20260904004527 | 55 | 340 | 3.5 | 7.8 | 0.00 | 0.20 | 0.01 | 81 | 1012.8 |
| 20260904003032 | 56 | 337 | 3.5 | 7.0 | 0.00 | 0.21 | 0.01 | 77 | 1012.7 |
| 20260904001607 | 57 | 359 | 3.5 | 6.1 | 0.00 | 0.23 | 0.01 | 73 | 1012.8 |
| 20260904000031 | 57 | 14 | 2.6 | 5.2 | 0.00 | 0.25 | 0.01 | 74 | 1012.8 |
| 20260903234609 | 57 | 3 | 3.5 | 7.8 | 0.00 | 0.26 | 0.01 | 76 | 1012.9 |
| 20260903231531 | 58 | 322 | 4.3 | 10.4 | 0.00 | 0.26 | 0.01 | 69 | 1013.2 |
| 20260903230032 | 59 | 333 | 5.2 | 10.4 | 0.00 | 0.26 | 0.01 | 67 | 1013.1 |
| 20260903224607 | 60 | 327 | 4.3 | 9.6 | 0.00 | 0.27 | 0.01 | 65 | 1013.1 |
| 20260903221530 | 62 | 326 | 2.6 | 9.6 | 0.00 | 0.28 | 0.01 | 61 | 1012.9 |
| 20260903220033 | 62 | 313 | 2.6 | 6.1 | 0.00 | 0.28 | 0.01 | 62 | 1013.0 |
| 20260903214530 | 62 | 2 | 3.5 | 7.0 | 0.00 | 0.30 | 0.01 | 63 | 1013.0 |
| 20260903211532 | 61 | 318 | 3.5 | 7.0 | 0.00 | 0.32 | 0.01 | 65 | 1013.1 |
| 20260903204531 | 62 | 344 | 4.3 | 9.6 | 0.00 | 0.35 | 0.01 | 69 | 1013.2 |
| 20260903203030 | 61 | 348 | 4.3 | 9.6 | 0.00 | 0.36 | 0.01 | 71 | 1013.2 |
| 20260903201530 | 60 | 348 | 4.3 | 10.4 | 0.00 | 0.36 | 0.01 | 72 | 1013.3 |
| 20260903200104 | 61 | 349 | 5.2 | 12.2 | 0.00 | 0.36 | 0.01 | 70 | 1013.5 |
| 20260903193031 | 60 | 331 | 5.2 | 11.3 | 0.00 | 0.36 | 0.01 | 74 | 1013.6 |
| 20260903191531 | 59 | 334 | 5.2 | 10.4 | 0.00 | 0.36 | 0.01 | 75 | 1013.9 |
| 20260903184529 | 58 | 360 | 4.3 | 9.6 | 0.00 | 0.36 | 0.01 | 76 | 1014.2 |
| 20260903183029 | 58 | 356 | 3.5 | 7.0 | 0.00 | 0.36 | 0.01 | 76 | 1014.1 |
| 20260903181532 | 58 | 354 | 3.5 | 7.8 | 0.00 | 0.36 | 0.01 | 75 | 1014.2 |
| 20260903180032 | 57 | 351 | 3.5 | 7.8 | 0.00 | 0.36 | 0.01 | 76 | 1014.1 |
| 20260903174605 | 56 | 335 | 3.5 | 7.8 | 0.00 | 0.36 | 0.01 | 81 | 1014.1 |
| 20260903173102 | 54 | 336 | 3.5 | 7.8 | 0.00 | 0.36 | 0.01 | 89 | 1014.1 |
| 20260903171530 | 52 | 359 | 1.7 | 3.5 | 0.00 | 0.36 | 0.01 | 93 | 1014.2 |
| 20260903170031 | 51 | 6 | 1.7 | 4.3 | 0.00 | 0.36 | 0.01 | 95 | 1014.2 |
| 20260903164529 | 50 | 342 | 0.9 | 3.5 | 0.00 | 0.36 | 0.01 | 95 | 1014.3 |
| 20260903163031 | 50 | 342 | 0.9 | 3.5 | 0.00 | 0.36 | 0.01 | 96 | 1014.1 |
| 20260903161527 | 50 | 271 | 1.7 | 4.3 | 0.00 | 0.36 | 0.01 | 96 | 1014.2 |
| 20260903160038 | 50 | 99 | 0.9 | 2.6 | 0.00 | 0.36 | 0.01 | 97 | 1014.3 |
| 20260903154529 | 49 | 83 | 0.9 | 4.3 | 0.00 | 0.36 | 0.01 | 97 | 1014.3 |
| 20260903151529 | 47 | 69 | 4.3 | 12.2 | 0.00 | 0.36 | 0.01 | 98 | 1014.1 |
| 20260903150030 | 47 | 126 | 3.5 | 10.4 | 0.00 | 0.36 | 0.01 | 98 | 1014.3 |
| 20260903144530 | 47 | 222 | 1.7 | 7.0 | 0.00 | 0.36 | 0.01 | 98 | 1013.9 |
| 20260903143030 | 46 | 133 | 3.5 | 7.0 | 0.00 | 0.36 | 0.01 | 98 | 1013.8 |
| 20260903141529 | 45 | 171 | 1.7 | 6.1 | 0.00 | 0.36 | 0.01 | 98 | 1013.8 |
| 20260903140109 | 45 | 281 | 0.0 | 2.6 | 0.00 | 0.36 | 0.01 | 98 | 1013.7 |